Theta_e
314 314 315 315 315 315 315 315 315 316 318 319 318 317 316 315 314 301 297 308 308 314 308 301 297 297 296 292 293 294 283 278 279 281 278 283 280 283 285 283 284 285 284 285 288
314 314 314 314 314 315 315 316 316 316 319 319 318 314 315 312 298 298 310 316 313 309 296 295 292 293 287 289 289 285 280 278 282 283 280 281 281 282 281 281 281 282 285 285 287
313 313 314 314 314 314 315 316 317 318 319 318 318 314 314 304 294 294 311 315 312 304 298 295 293 290 285 286 286 285 279 283 284 284 283 280 280 282 281 278 280 281 283 285 285
312 312 312 313 314 314 315 315 317 317 318 318 317 314 308 295 284 293 308 312 310 301 297 294 292 286 282 280 285 281 284 285 284 285 284 280 282 279 278 279 284 284 284 285 285
310 311 311 312 313 314 314 314 315 315 316 316 313 312 295 286 286 293 306 306 302 299 294 291 288 286 282 283 284 281 283 284 284 284 283 283 279 280 279 283 285 285 285 284 285
309 310 310 311 312 312 313 314 314 314 315 313 312 305 290 282 291 291 297 301 299 297 294 293 290 289 285 284 282 285 284 285 286 285 285 281 279 283 281 285 287 286 285 285 285
309 309 310 310 311 311 312 313 310 312 312 311 308 294 287 285 289 289 292 297 299 298 294 294 294 290 288 283 287 286 283 285 287 288 285 288 281 278 284 286 285 286 286 286 286
308 309 309 310 310 311 312 313 310 312 310 310 305 291 283 289 288 290 289 290 291 294 296 297 295 290 287 288 287 285 283 279 282 286 287 285 279 282 285 284 284 285 285 286 286
308 308 309 310 310 311 310 311 309 308 306 302 289 287 282 295 287 288 287 287 288 289 289 292 290 287 285 282 279 279 276 277 279 282 281 282 279 282 285 284 283 284 284 285 285
308 308 308 309 310 311 307 307 305 298 293 290 288 284 285 283 286 287 287 287 286 286 286 284 281 279 277 278 274 277 276 277 275 278 279 278 279 281 282 282 282 282 282 282 284
307 308 308 309 311 307 295 289 287 286 285 280 280 280 282 286 287 286 286 285 284 281 277 280 277 274 274 277 278 277 276 274 276 279 277 276 276 280 282 281 280 281 281 280 281
307 307 308 309 309 302 289 285 283 284 280 283 282 282 284 283 281 285 286 282 280 276 276 278 274 276 278 280 278 277 275 275 277 279 277 274 275 278 281 280 280 280 280 280 280
307 307 307 308 304 291 288 287 292 288 280 282 282 281 282 284 279 281 283 279 277 276 275 275 276 279 279 277 278 276 276 275 275 278 276 276 274 275 277 278 278 278 280 280 279
306 306 306 306 295 287 285 289 293 290 279 280 280 281 283 282 279 283 282 279 277 275 274 274 277 278 277 276 277 276 278 278 279 275 269 275 270 273 276 275 277 279 277 278 278
305 306 304 299 288 286 287 293 292 288 271 281 280 284 282 280 279 280 281 280 275 275 274 274 274 275 275 277 279 278 279 279 278 274 271 271 267 273 275 276 277 277 278 278 279
305 304 302 293 289 288 292 289 288 278 270 278 280 279 278 279 279 280 279 281 278 277 276 273 274 275 276 278 279 281 278 277 276 273 264 267 269 273 273 277 278 280 279 279 279
304 302 296 293 286 291 289 287 279 273 279 278 277 278 277 276 277 278 276 275 276 274 273 274 273 274 277 276 278 278 274 266 268 266 268 270 267 276 278 277 279 280 280 280 280
303 298 294 292 290 290 287 282 271 274 277 278 277 276 275 276 276 276 275 275 273 274 269 271 273 273 275 274 274 275 272 269 263 265 267 268 268 277 278 279 279 280 280 279 279
297 286 288 289 291 288 285 271 276 278 280 277 276 273 274 276 274 273 273 274 276 276 275 269 272 273 276 274 274 272 271 271 260 251 261 268 272 277 277 277 278 278 278 279 279
287 284 284 289 289 287 280 278 277 281 280 278 278 277 274 273 273 272 273 277 276 277 275 274 270 273 274 274 274 273 274 269 265 264 263 268 267 276 278 280 278 277 278 280 280
288 287 286 289 288 283 274 274 280 281 281 280 279 277 277 276 275 272 275 277 277 275 276 274 273 270 273 271 270 269 270 269 268 267 265 263 273 278 279 281 279 279 279 281 281
287 288 289 289 280 266 272 277 284 280 280 281 279 280 279 278 276 274 275 279 279 278 276 277 272 265 271 269 271 272 271 271 269 266 264 266 272 280 280 280 280 280 280 280 282
286 286 291 290 281 274 276 279 281 279 280 280 280 280 279 278 278 276 275 277 279 279 277 277 270 265 270 270 270 269 271 272 266 266 264 267 276 278 278 278 279 279 280 280 281
289 285 285 287 284 281 280 280 281 281 280 281 280 279 279 277 278 280 277 278 278 279 283 281 270 273 275 275 271 267 269 270 269 264 270 273 278 282 282 281 281 280 280 281 280
290 286 284 279 280 281 280 281 280 280 280 280 279 280 279 278 277 274 276 277 277 280 279 277 271 269 269 270 270 272 272 271 270 274 272 280 278 282 283 284 285 285 283 280 281
285 284 284 282 282 281 282 280 281 282 280 279 277 279 279 279 280 278 279 278 279 275 276 275 272 267 272 269 272 272 276 274 273 275 275 279 278 285 285 282 281 283 282 281 282
285 285 286 285 281 280 280 281 281 282 283 282 281 282 281 283 280 280 281 281 280 277 275 273 273 272 273 267 268 271 276 277 276 276 277 274 279 284 283 284 285 285 282 282 284
Wind_Speed
12 12 12 13 13 13 14 13 13 12 12 12 10 6 4 6 7 24 28 17 16 18 7 3 12 5 8 9 9 5 7 5 5 4 3 2 2 3 4 4 4 5 4 4 9
12 12 12 13 14 14 14 14 14 13 12 12 11 2 2 5 7 25 24 26 21 15 9 6 8 13 9 7 7 8 6 4 4 3 5 4 2 4 1 1 3 3 6 6 6
12 13 14 15 15 16 16 16 15 15 13 13 11 8 2 2 8 9 28 24 20 4 8 5 6 7 10 6 11 7 6 4 7 8 5 3 4 2 4 5 4 2 4 5 5
13 13 14 14 15 16 17 16 15 14 14 13 11 6 12 7 7 8 25 18 19 10 11 15 12 10 9 11 5 10 13 5 3 5 2 3 2 5 4 3 2 4 2 2 4
12 12 13 15 16 16 17 18 15 13 12 11 10 10 10 10 6 9 18 12 10 16 16 5 12 5 9 6 10 13 10 10 11 11 9 9 8 5 5 4 2 3 5 4 1
10 10 10 11 12 14 16 17 15 13 12 11 12 8 9 12 4 9 8 18 14 11 13 10 8 12 11 6 8 6 11 9 6 6 4 4 4 4 2 5 4 4 3 2 1
10 11 10 10 11 12 14 14 12 10 10 10 9 5 12 5 2 6 8 4 5 6 13 4 4 6 7 7 7 8 7 4 4 2 3 2 3 3 5 5 1 6 5 5 5
13 13 11 11 11 13 14 12 9 10 6 7 8 6 5 0 2 6 7 2 7 5 7 2 9 10 7 7 5 1 3 5 6 9 0 3 3 4 6 3 3 4 6 7 8
13 13 13 13 14 14 13 10 9 4 7 7 7 6 3 2 5 6 5 4 5 3 7 4 7 6 4 4 4 9 4 4 4 4 4 3 3 3 7 7 6 5 5 6 7
13 13 12 12 13 13 12 2 6 6 8 3 4 5 6 5 5 6 6 5 6 1 5 11 8 5 6 5 3 2 3 2 2 6 5 6 6 4 6 6 7 6 5 5 7
14 14 13 14 14 12 6 4 8 5 13 5 2 1 3 8 3 7 4 6 5 10 6 7 12 7 5 5 4 7 4 2 3 2 2 3 5 8 7 6 8 7 7 7 7
14 14 15 14 11 7 4 7 2 1 5 2 0 1 1 1 5 8 7 6 9 5 4 8 5 2 4 3 6 4 3 3 4 2 1 5 13 10 10 9 9 10 9 9 5
14 14 15 17 3 6 5 5 1 1 5 3 2 2 3 4 2 7 6 3 6 7 8 7 4 1 1 5 4 4 4 1 3 5 2 9 6 4 5 6 5 8 8 8 12
14 14 16 16 7 1 4 0 1 2 7 3 3 4 2 1 4 2 3 4 6 3 2 5 2 2 3 3 2 2 1 1 3 4 2 6 7 6 5 8 10 14 12 13 12
14 15 12 12 4 4 1 4 4 3 6 3 4 2 2 3 2 4 2 5 4 3 2 3 1 1 2 3 1 3 1 2 2 3 3 6 4 9 2 8 16 18 17 16 15
11 13 9 6 4 0 4 3 3 12 7 2 2 3 2 4 3 4 2 8 4 4 5 2 2 4 1 1 0 3 1 3 3 2 5 5 4 9 7 9 5 11 18 19 17
11 11 7 1 1 5 3 4 10 6 4 4 1 3 1 2 1 4 4 3 3 3 1 1 1 1 2 2 4 3 4 5 8 7 5 1 2 15 7 9 7 9 15 17 16
7 7 6 3 5 4 4 9 6 4 7 1 1 1 3 2 1 3 2 4 3 3 3 4 7 3 2 2 2 3 2 7 5 3 6 3 9 10 8 6 8 7 6 8 13
4 3 3 4 5 2 8 5 11 9 4 7 1 2 3 1 2 2 5 5 7 10 8 5 4 1 2 2 3 1 1 1 9 1 3 4 9 14 6 12 9 9 9 11 14
3 2 2 7 6 5 8 7 6 4 7 2 7 6 5 3 1 2 2 5 4 6 1 4 2 1 1 2 4 2 4 4 4 3 7 7 7 11 6 8 6 10 14 14 10
4 3 3 6 2 7 6 10 7 5 4 7 7 4 7 6 8 6 5 4 4 3 2 4 4 2 1 9 10 3 3 3 3 5 6 3 9 11 11 9 9 11 11 12 13
3 1 3 4 5 1 5 8 3 4 2 5 3 7 9 8 7 5 9 9 7 9 9 6 6 5 8 2 1 4 7 7 7 7 3 2 17 5 9 1 5 9 9 9 12
5 2 2 1 4 3 4 4 3 5 6 7 8 7 4 8 2 9 6 1 8 9 9 8 4 3 8 3 4 6 6 5 4 4 10 6 14 1 1 6 8 11 10 10 10
4 3 3 2 1 3 3 5 4 4 5 6 4 4 4 5 4 4 5 1 2 3 1 4 2 10 18 12 7 7 9 12 8 5 6 20 34 23 11 11 10 10 12 13 11
3 2 1 4 4 4 1 2 2 3 2 1 2 7 8 7 4 6 3 1 3 7 4 6 9 6 6 3 3 8 7 16 18 22 16 37 30 28 16 20 22 20 13 11 14
2 2 2 2 3 3 4 3 6 7 2 3 2 3 4 4 6 4 5 5 9 3 8 6 7 4 13 4 8 26 18 19 28 24 30 29 47 25 17 8 11 16 10 19 21
1 2 1 4 4 3 4 5 1 5 1 4 4 7 14 15 5 7 8 6 7 7 9 7 5 5 26 3 4 21 14 28 24 20 26 28 41 24 23 23 28 19 15 20 19
Wind_Direction
32 28 26 27 23 16 10 8 9 6 355 337 335 302 327 347 305 29 36 346 346 347 7 79 37 32 35 49 34 348 63 57 30 27 114 162 192 42 354 72 31 24 34 29 337
23 21 22 21 17 11 8 5 4 4 0 351 357 19 123 30 36 27 0 357 9 17 42 46 25 35 56 26 26 54 66 50 351 27 94 64 61 114 116 191 75 73 55 42 8
18 10 12 10 8 6 5 2 1 357 1 1 15 46 61 82 56 336 348 353 9 21 75 78 60 62 59 25 9 33 89 150 52 90 102 109 70 69 157 48 14 44 88 61 33
13 7 7 3 1 359 360 359 356 355 356 2 12 43 49 44 77 304 338 352 19 34 73 49 26 60 70 51 10 93 54 66 35 33 89 84 128 73 43 106 46 31 19 104 68
18 10 4 359 355 354 353 350 348 349 354 9 21 32 50 48 57 305 337 351 12 38 36 55 53 72 77 96 63 75 102 89 112 103 85 78 67 103 71 97 91 70 60 69 148
16 8 7 2 353 350 349 349 345 341 346 9 27 58 68 72 281 322 334 45 33 47 40 36 103 115 84 59 58 110 105 123 120 87 81 125 168 156 246 215 185 156 130 106 102
9 360 358 356 350 348 348 350 343 339 347 9 24 67 65 151 132 343 1 17 9 52 58 32 145 82 133 107 136 154 91 116 53 109 113 226 66 87 191 216 249 190 167 184 194
3 358 356 352 350 346 344 345 3 7 14 11 23 61 73 100 187 15 338 42 30 41 92 126 89 86 78 123 113 60 56 23 342 353 78 297 258 208 199 211 248 212 186 193 204
5 3 1 354 348 342 338 330 346 334 14 355 40 82 50 65 16 322 16 343 314 30 34 72 63 74 37 98 70 21 71 30 324 38 316 358 244 214 181 205 242 254 202 207 210
6 0 355 349 342 336 330 296 15 29 354 36 64 52 16 328 316 335 333 355 41 17 13 30 47 63 17 40 91 1 45 21 8 322 4 349 301 275 202 213 242 256 256 231 224
2 359 351 345 340 345 12 24 18 356 40 93 303 156 340 300 270 1 354 339 1 50 50 10 58 49 334 348 106 122 102 88 289 321 310 274 264 247 230 239 246 241 240 239 234
1 355 349 347 343 6 55 75 72 170 70 9 161 71 101 311 355 352 8 55 36 33 327 42 63 295 260 51 71 45 83 358 277 322 302 345 282 245 202 229 225 229 229 228 222
357 354 346 341 359 35 74 108 75 185 85 3 36 50 312 21 92 314 23 62 74 39 6 100 172 271 130 35 45 36 89 358 208 318 94 320 287 233 235 225 231 230 228 223 215
0 359 353 336 44 287 53 346 253 208 67 326 349 2 332 64 32 313 23 119 42 143 70 85 275 162 107 76 350 61 254 277 358 22 311 21 286 279 233 244 221 230 219 224 215
359 356 357 43 151 58 326 323 293 61 22 297 322 296 355 55 358 4 350 40 85 76 21 356 359 325 70 177 189 156 77 35 52 78 58 358 70 272 341 256 236 223 220 218 212
4 358 350 19 47 193 313 323 42 40 259 358 307 346 345 22 18 307 31 46 143 113 64 75 318 336 37 334 21 144 159 73 56 79 33 263 111 278 201 215 234 214 214 211 207
7 10 43 49 14 329 320 52 35 127 318 289 223 23 350 351 348 31 8 338 175 41 344 140 278 323 329 43 344 26 52 347 358 10 222 177 11 247 246 231 224 218 221 211 204
25 36 19 42 327 344 38 48 104 238 227 120 113 108 210 23 278 345 29 288 245 82 96 138 321 168 80 36 284 8 111 146 238 264 273 8 240 251 214 226 225 235 237 214 212
47 11 46 345 342 17 71 71 207 205 131 142 66 174 294 198 148 3 217 225 218 181 171 129 257 75 48 55 71 271 32 106 99 97 29 242 280 287 239 253 230 228 225 225 214
78 56 25 323 347 57 76 228 231 194 130 139 190 163 220 221 153 161 224 202 226 197 46 204 14 32 123 120 49 165 153 62 4 326 299 280 276 243 277 267 228 230 228 229 218
69 28 310 339 53 54 172 221 249 220 153 173 202 199 206 194 189 204 235 260 169 128 84 123 111 275 99 201 176 151 209 54 122 150 199 291 251 215 221 237 238 242 233 223 218
122 209 334 327 69 31 173 195 235 191 149 257 225 201 191 172 199 236 225 227 152 157 173 197 150 193 206 143 171 183 188 166 136 233 234 173 266 179 237 199 200 264 253 238 222
129 133 318 53 190 237 276 266 250 171 200 191 228 214 189 190 259 193 202 308 156 173 170 195 229 348 326 12 356 222 202 155 110 82 196 167 258 154 17 301 264 259 258 244 239
127 153 342 56 49 173 184 215 241 214 245 187 196 134 135 216 206 249 248 5 180 201 110 128 193 186 251 234 133 193 201 197 149 141 232 223 268 247 262 278 271 253 249 250 232
25 113 316 186 240 196 115 77 159 264 216 246 254 229 191 216 207 222 247 261 189 209 154 157 239 188 249 240 233 241 189 185 200 218 214 271 244 262 232 245 250 251 250 251 242
70 94 42 106 17 81 179 240 254 289 48 309 258 337 258 262 233 279 220 187 221 128 174 176 245 133 276 213 241 271 240 210 214 225 243 257 271 262 286 261 256 252 242 248 248
88 57 86 139 133 129 196 199 2 49 21 46 350 318 285 284 294 280 247 253 263 182 191 168 173 142 260 71 319 275 247 231 226 216 223 237 249 287 269 264 264 273 240 253 262